NKS9247 KLGA-KDTW

Flight info

Callsign NKS9247
Flight time 1h 23m
Altitude 34000
Route GLDMN8 GLDMN COATE Q436 HERBA DONEO TPGUN2
Aircraft A21N/M-SDE2E3FGHIRWXY/LB1

Departure

Time 2026-05-05 00:25
Airport LaGuardia Airport (KLGA)

Arrival

Time 2026-05-05 01:49
Airport Detroit Metropolitan Wayne County Airport (KDTW)
Time Latitude Longitude Altitude Speed Heading
2026-05-04 23:52 40.77480 -73.87277 22 ft 0 kts 36°
2026-05-05 00:17 40.77475 -73.87283 20 ft 4 kts 37°
2026-05-05 00:17 40.77453 -73.87305 22 ft 4 kts 38°
2026-05-05 00:17 40.77432 -73.87323 23 ft 4 kts
2026-05-05 00:17 40.77426 -73.87330 21 ft 1 kts 276°
2026-05-05 00:18 40.77426 -73.87329 21 ft 2 kts 276°
2026-05-05 00:20 40.77427 -73.87336 22 ft 2 kts 280°
2026-05-05 00:20 40.77430 -73.87347 21 ft 1 kts 288°
2026-05-05 00:20 40.77433 -73.87357 22 ft 1 kts 288°
2026-05-05 00:20 40.77434 -73.87361 22 ft 0 kts 288°
2026-05-05 00:21 40.77434 -73.87362 22 ft 0 kts 288°
2026-05-05 00:21 40.77458 -73.87426 23 ft 17 kts 297°
2026-05-05 00:21 40.77577 -73.87599 23 ft 34 kts 339°
2026-05-05 00:21 40.77688 -73.87535 22 ft 20 kts 32°
2026-05-05 00:22 40.77813 -73.87507 19 ft 20 kts 26°
2026-05-05 00:22 40.77938 -73.87484 17 ft 21 kts 320°
2026-05-05 00:22 40.78055 -73.87718 16 ft 31 kts 302°
2026-05-05 00:22 40.78124 -73.87837 19 ft 5 kts 327°
2026-05-05 00:23 40.78131 -73.87843 21 ft 0 kts 328°
2026-05-05 00:23 40.78191 -73.87857 21 ft 17 kts 20°
2026-05-05 00:23 40.78199 -73.87763 19 ft 1 kts 135°
2026-05-05 00:24 40.78174 -73.87721 18 ft 6 kts 125°
2026-05-05 00:24 40.78129 -73.87629 17 ft 50 kts 122°
2026-05-05 00:24 40.77760 -73.86858 16 ft 145 kts 122°
2026-05-05 00:25 40.77064 -73.85405 17 ft 222 kts 123°
2026-05-05 00:25 40.76198 -73.83675 951 ft 224 kts 126°
2026-05-05 00:25 40.75068 -73.82146 1538 ft 243 kts 157°
2026-05-05 00:25 40.73400 -73.81611 2055 ft 250 kts 187°
2026-05-05 00:26 40.71855 -73.82298 2525 ft 248 kts 218°
2026-05-05 00:26 40.70508 -73.83817 3045 ft 247 kts 230°
2026-05-05 00:26 40.69401 -73.85598 3569 ft 248 kts 234°
2026-05-05 00:26 40.68303 -73.87365 4082 ft 249 kts 238°
2026-05-05 00:27 40.67681 -73.89437 4603 ft 246 kts 265°
2026-05-05 00:27 40.67951 -73.91663 5124 ft 247 kts 294°
2026-05-05 00:27 40.68800 -73.93608 5723 ft 249 kts 299°
2026-05-05 00:27 40.69693 -73.95571 6380 ft 250 kts 300°
2026-05-05 00:28 40.70643 -73.97509 7006 ft 252 kts 307°
2026-05-05 00:28 40.71740 -73.99322 7627 ft 253 kts 307°
2026-05-05 00:28 40.72832 -74.01128 8344 ft 255 kts 308°
2026-05-05 00:28 40.73943 -74.02966 9265 ft 257 kts 308°
2026-05-05 00:29 40.75057 -74.04809 10128 ft 258 kts 308°
2026-05-05 00:29 40.76168 -74.06648 10885 ft 261 kts 308°
2026-05-05 00:29 40.77308 -74.08540 11650 ft 264 kts 308°
2026-05-05 00:29 40.78456 -74.10453 12404 ft 268 kts 308°
2026-05-05 00:30 40.79612 -74.12374 13161 ft 271 kts 309°
2026-05-05 00:30 40.80826 -74.14392 13536 ft 290 kts 309°
2026-05-05 00:30 40.82096 -74.16506 14042 ft 299 kts 308°
2026-05-05 00:30 40.83420 -74.18712 14694 ft 303 kts 308°
2026-05-05 00:31 40.84725 -74.20887 15361 ft 306 kts 308°
2026-05-05 00:31 40.86027 -74.23057 16022 ft 309 kts 307°
2026-05-05 00:31 40.87363 -74.25290 16690 ft 312 kts 307°
2026-05-05 00:31 40.88710 -74.27548 17364 ft 315 kts 307°
2026-05-05 00:32 40.90068 -74.29822 18033 ft 318 kts 307°
2026-05-05 00:32 40.91443 -74.32122 18665 ft 320 kts 307°
2026-05-05 00:32 40.92827 -74.34437 19266 ft 323 kts 307°
2026-05-05 00:32 40.94231 -74.36785 19863 ft 325 kts 307°
2026-05-05 00:33 40.95644 -74.39157 20436 ft 328 kts 307°
2026-05-05 00:33 40.97062 -74.41545 21029 ft 331 kts 306°
2026-05-05 00:33 40.98490 -74.43952 21628 ft 333 kts 306°
2026-05-05 00:33 40.99927 -74.46372 22238 ft 335 kts 306°
2026-05-05 00:34 41.01367 -74.48793 22841 ft 337 kts 306°
2026-05-05 00:34 41.02831 -74.51256 23451 ft 340 kts 306°
2026-05-05 00:34 41.04274 -74.53691 23951 ft 342 kts 306°
2026-05-05 00:34 41.05748 -74.56179 24454 ft 345 kts 306°
2026-05-05 00:35 41.07241 -74.58703 24962 ft 347 kts 306°
2026-05-05 00:35 41.08730 -74.61222 25460 ft 349 kts 306°
2026-05-05 00:35 41.10239 -74.63773 25929 ft 352 kts 306°
2026-05-05 00:35 41.11758 -74.66343 26426 ft 354 kts 306°
2026-05-05 00:36 41.13275 -74.68931 26888 ft 356 kts 303°
2026-05-05 00:36 41.14589 -74.71699 27317 ft 357 kts 298°
2026-05-05 00:36 41.15836 -74.74578 27756 ft 360 kts 298°
2026-05-05 00:36 41.17092 -74.77466 28194 ft 362 kts 298°
2026-05-05 00:37 41.18359 -74.80373 28635 ft 365 kts 298°
2026-05-05 00:37 41.19636 -74.83304 29081 ft 367 kts 298°
2026-05-05 00:37 41.20899 -74.86211 29487 ft 369 kts 298°
2026-05-05 00:37 41.22205 -74.89221 29912 ft 372 kts 298°
2026-05-05 00:38 41.23520 -74.92252 30260 ft 374 kts 298°
2026-05-05 00:38 41.24754 -74.95093 30561 ft 377 kts 298°
2026-05-05 00:38 41.26071 -74.98129 30875 ft 379 kts 298°
2026-05-05 00:38 41.27398 -75.01197 31195 ft 382 kts 298°
2026-05-05 00:39 41.28723 -75.04266 31500 ft 384 kts 298°
2026-05-05 00:39 41.30044 -75.07323 31806 ft 387 kts 298°
2026-05-05 00:39 41.31389 -75.10435 32089 ft 390 kts 298°
2026-05-05 00:39 41.32741 -75.13574 32379 ft 392 kts 298°
2026-05-05 00:40 41.34091 -75.16716 32657 ft 394 kts 298°
2026-05-05 00:40 41.35425 -75.19827 32926 ft 397 kts 298°
2026-05-05 00:40 41.36798 -75.23037 33213 ft 399 kts 298°
2026-05-05 00:40 41.38178 -75.26260 33492 ft 402 kts 298°
2026-05-05 00:41 41.39096 -75.28402 33668 ft 403 kts 298°
2026-05-05 00:41 41.40485 -75.31645 33922 ft 406 kts 298°
2026-05-05 00:41 41.41893 -75.34933 34005 ft 407 kts 297°
2026-05-05 00:42 41.44700 -75.41492 34002 ft 407 kts 297°
2026-05-05 00:42 41.47483 -75.48106 34002 ft 407 kts 294°
2026-05-05 00:43 41.49553 -75.55111 34007 ft 407 kts 290°
2026-05-05 00:43 41.51579 -75.62173 34006 ft 408 kts 290°
2026-05-05 00:44 41.53612 -75.69248 34017 ft 408 kts 290°
2026-05-05 00:44 41.55639 -75.76337 34018 ft 409 kts 290°
2026-05-05 00:45 41.57666 -75.83433 34018 ft 409 kts 290°
2026-05-05 00:45 41.59695 -75.90557 34019 ft 409 kts 290°
2026-05-05 00:46 41.61710 -75.97675 34030 ft 409 kts 290°
2026-05-05 00:46 41.63726 -76.04809 34027 ft 409 kts 290°
2026-05-05 00:47 41.65669 -76.11705 34032 ft 409 kts 290°
2026-05-05 00:47 41.67671 -76.18831 34033 ft 409 kts 290°
2026-05-05 00:48 41.69670 -76.25971 34038 ft 409 kts 290°
2026-05-05 00:48 41.71665 -76.33100 34028 ft 409 kts 290°
2026-05-05 00:49 41.73648 -76.40227 34039 ft 408 kts 290°
2026-05-05 00:49 41.75634 -76.47359 34034 ft 408 kts 290°
2026-05-05 00:50 41.77583 -76.54384 34028 ft 408 kts 289°
2026-05-05 00:50 41.79541 -76.61476 34027 ft 408 kts 290°
2026-05-05 00:51 41.81511 -76.68588 34025 ft 407 kts 289°
2026-05-05 00:51 41.83462 -76.75709 34025 ft 407 kts 289°
2026-05-05 00:52 41.85379 -76.82724 34023 ft 407 kts 289°
2026-05-05 00:52 41.87332 -76.89849 34027 ft 407 kts 290°
2026-05-05 00:53 41.89274 -76.96959 34028 ft 407 kts 289°
2026-05-05 00:53 41.91197 -77.04085 34024 ft 406 kts 289°
2026-05-05 00:54 41.93121 -77.11198 34026 ft 406 kts 289°
2026-05-05 00:54 41.95046 -77.18335 34024 ft 406 kts 289°
2026-05-05 00:55 41.96962 -77.25476 34020 ft 406 kts 290°
2026-05-05 00:55 41.98846 -77.32531 34027 ft 406 kts 289°
2026-05-05 00:56 42.00754 -77.39676 34032 ft 406 kts 290°
2026-05-05 00:56 42.02685 -77.46794 34033 ft 405 kts 290°
2026-05-05 00:57 42.04629 -77.53935 34040 ft 405 kts 290°
2026-05-05 00:57 42.06563 -77.61051 34028 ft 405 kts 290°
2026-05-05 00:58 42.08499 -77.68174 34029 ft 406 kts 290°
2026-05-05 00:58 42.10426 -77.75307 34032 ft 406 kts 290°
2026-05-05 00:59 42.12343 -77.82460 34024 ft 407 kts 290°
2026-05-05 00:59 42.14277 -77.89651 34025 ft 407 kts 290°
2026-05-05 01:00 42.16197 -77.96823 34020 ft 407 kts 290°
2026-05-05 01:00 42.18121 -78.04021 34018 ft 407 kts 290°
2026-05-05 01:01 42.20034 -78.11234 34030 ft 408 kts 290°
2026-05-05 01:01 42.21950 -78.18445 34032 ft 408 kts 290°
2026-05-05 01:02 42.23845 -78.25667 34031 ft 408 kts 290°
2026-05-05 01:02 42.26286 -78.32577 34031 ft 408 kts 297°
2026-05-05 01:03 42.28879 -78.39375 34019 ft 415 kts 296°
2026-05-05 01:03 42.31541 -78.46394 34014 ft 422 kts 296°
2026-05-05 01:04 42.34222 -78.53445 34011 ft 422 kts 296°
2026-05-05 01:04 42.38206 -78.63988 34014 ft 422 kts 296°
2026-05-05 01:05 42.40900 -78.71132 34000 ft 422 kts 296°
2026-05-05 01:05 42.43553 -78.78179 34006 ft 423 kts 296°
2026-05-05 01:06 42.46233 -78.85313 34005 ft 423 kts 296°
2026-05-05 01:06 42.48901 -78.92445 34027 ft 424 kts 296°
2026-05-05 01:07 42.51561 -78.99590 34014 ft 424 kts 296°
2026-05-05 01:07 42.54219 -79.06743 34011 ft 425 kts 296°
2026-05-05 01:08 42.56882 -79.13904 34010 ft 425 kts 296°
2026-05-05 01:08 42.59528 -79.21024 34010 ft 425 kts 296°
2026-05-05 01:09 42.62179 -79.28195 34008 ft 425 kts 296°
2026-05-05 01:09 42.64820 -79.35386 34003 ft 425 kts 296°
2026-05-05 01:10 42.67458 -79.42564 34003 ft 425 kts 296°
2026-05-05 01:10 42.70097 -79.49756 34007 ft 424 kts 296°
2026-05-05 01:11 42.72722 -79.56932 34002 ft 424 kts 296°
2026-05-05 01:11 42.75344 -79.64119 33996 ft 423 kts 296°
2026-05-05 01:12 42.77892 -79.71279 34006 ft 423 kts 290°
2026-05-05 01:12 42.78487 -79.75185 34002 ft 423 kts 276°
2026-05-05 01:12 42.78518 -79.79202 33998 ft 426 kts 268°
2026-05-05 01:13 42.77679 -79.87209 33963 ft 429 kts 262°
2026-05-05 01:13 42.76617 -79.95199 33971 ft 428 kts 264°
2026-05-05 01:14 42.75819 -80.03230 33976 ft 427 kts 266°
2026-05-05 01:14 42.75186 -80.11226 33984 ft 427 kts 266°
2026-05-05 01:15 42.74544 -80.19251 33981 ft 427 kts 266°
2026-05-05 01:15 42.73856 -80.27298 33981 ft 428 kts 266°
2026-05-05 01:16 42.73259 -80.33970 33959 ft 426 kts 265°
2026-05-05 01:16 42.72907 -80.37960 33463 ft 422 kts 266°
2026-05-05 01:16 42.72643 -80.41898 32695 ft 411 kts 268°
2026-05-05 01:17 42.72469 -80.45764 31906 ft 409 kts 269°
2026-05-05 01:17 42.72343 -80.49620 31464 ft 404 kts 270°
2026-05-05 01:17 42.72227 -80.53422 31001 ft 400 kts 270°
2026-05-05 01:17 42.72102 -80.57203 30522 ft 397 kts 270°
2026-05-05 01:18 42.71964 -80.60873 30082 ft 393 kts 269°
2026-05-05 01:18 42.71810 -80.64581 29540 ft 389 kts 269°
2026-05-05 01:18 42.71648 -80.68256 28980 ft 386 kts 269°
2026-05-05 01:18 42.71482 -80.71879 28420 ft 382 kts 269°
2026-05-05 01:19 42.71315 -80.75477 27874 ft 379 kts 269°
2026-05-05 01:19 42.71150 -80.79037 27336 ft 376 kts 269°
2026-05-05 01:19 42.70984 -80.82573 26809 ft 373 kts 269°
2026-05-05 01:19 42.70821 -80.86070 26294 ft 370 kts 269°
2026-05-05 01:20 42.70660 -80.89550 25793 ft 367 kts 269°
2026-05-05 01:20 42.70501 -80.92963 25596 ft 360 kts 269°
2026-05-05 01:20 42.70340 -80.96386 25387 ft 361 kts 269°
2026-05-05 01:20 42.70180 -80.99790 24864 ft 360 kts 269°
2026-05-05 01:21 42.70020 -81.03181 24399 ft 358 kts 269°
2026-05-05 01:21 42.69860 -81.06550 23995 ft 356 kts 269°
2026-05-05 01:21 42.69702 -81.09913 23874 ft 356 kts 269°
2026-05-05 01:21 42.69543 -81.13280 23873 ft 357 kts 269°
2026-05-05 01:22 42.69381 -81.16655 23873 ft 357 kts 269°
2026-05-05 01:22 42.69216 -81.20018 23874 ft 358 kts 269°
2026-05-05 01:22 42.69048 -81.23396 23873 ft 358 kts 269°
2026-05-05 01:22 42.68879 -81.26762 23880 ft 358 kts 269°
2026-05-05 01:23 42.68709 -81.30110 23867 ft 358 kts 269°
2026-05-05 01:23 42.68538 -81.33481 23866 ft 358 kts 269°
2026-05-05 01:23 42.68345 -81.36854 23864 ft 358 kts 268°
2026-05-05 01:23 42.68091 -81.40208 23831 ft 357 kts 266°
2026-05-05 01:24 42.67801 -81.43550 23417 ft 355 kts 266°
2026-05-05 01:24 42.67498 -81.46872 22920 ft 352 kts 266°
2026-05-05 01:24 42.67195 -81.50172 22438 ft 350 kts 266°
2026-05-05 01:24 42.66898 -81.53450 21944 ft 348 kts 266°
2026-05-05 01:25 42.66611 -81.56695 21481 ft 345 kts 266°
2026-05-05 01:25 42.66330 -81.59929 21003 ft 343 kts 266°
2026-05-05 01:25 42.66054 -81.63145 20525 ft 341 kts 265°
2026-05-05 01:25 42.65779 -81.66342 20043 ft 339 kts 265°
2026-05-05 01:26 42.65505 -81.69510 19564 ft 337 kts 265°
2026-05-05 01:26 42.65229 -81.72667 19087 ft 335 kts 265°
2026-05-05 01:26 42.64954 -81.75790 18617 ft 333 kts 265°
2026-05-05 01:26 42.64681 -81.78899 18151 ft 331 kts 265°
2026-05-05 01:27 42.64414 -81.81958 17626 ft 329 kts 265°
2026-05-05 01:27 42.64143 -81.85029 17119 ft 327 kts 265°
2026-05-05 01:27 42.63873 -81.88083 16610 ft 325 kts 265°
2026-05-05 01:27 42.63605 -81.91134 16104 ft 323 kts 264°
2026-05-05 01:28 42.63346 -81.94059 15632 ft 321 kts 264°
2026-05-05 01:28 42.63081 -81.97024 15123 ft 320 kts 264°
2026-05-05 01:28 42.62887 -81.99174 14769 ft 319 kts 264°
2026-05-05 01:28 42.62610 -82.02244 14279 ft 317 kts 264°
2026-05-05 01:29 42.62342 -82.05210 13812 ft 315 kts 264°
2026-05-05 01:29 42.62077 -82.08152 13309 ft 314 kts 264°
2026-05-05 01:29 42.61809 -82.11093 12820 ft 311 kts 264°
2026-05-05 01:29 42.61544 -82.13999 12361 ft 309 kts 264°
2026-05-05 01:30 42.61283 -82.16841 12205 ft 307 kts 264°
2026-05-05 01:30 42.61017 -82.19732 12230 ft 309 kts 264°
2026-05-05 01:30 42.60753 -82.22619 12222 ft 309 kts 264°
2026-05-05 01:30 42.60488 -82.25523 12230 ft 309 kts 264°
2026-05-05 01:31 42.60222 -82.28400 12230 ft 309 kts 264°
2026-05-05 01:31 42.59952 -82.31300 12236 ft 309 kts 263°
2026-05-05 01:31 42.59682 -82.34194 12229 ft 309 kts 264°
2026-05-05 01:31 42.59412 -82.37107 12229 ft 309 kts 264°
2026-05-05 01:32 42.59145 -82.39991 12040 ft 306 kts 264°
2026-05-05 01:32 42.58703 -82.42789 11674 ft 301 kts 250°
2026-05-05 01:32 42.57907 -82.45354 11545 ft 288 kts 249°
2026-05-05 01:32 42.57150 -82.47807 11402 ft 288 kts 249°
2026-05-05 01:33 42.56326 -82.50507 11349 ft 327 kts 249°
2026-05-05 01:33 42.55487 -82.53247 11125 ft 304 kts 249°
2026-05-05 01:33 42.54710 -82.55759 10942 ft 274 kts 249°
2026-05-05 01:33 42.54006 -82.58021 10808 ft 248 kts 249°
2026-05-05 01:34 42.53371 -82.60057 10739 ft 230 kts 250°
2026-05-05 01:34 42.52877 -82.62134 10632 ft 239 kts 267°
2026-05-05 01:34 42.53025 -82.64356 10636 ft 233 kts 280°
2026-05-05 01:34 42.53361 -82.66486 10632 ft 230 kts 282°
2026-05-05 01:35 42.53716 -82.68590 10634 ft 229 kts 282°
2026-05-05 01:35 42.54074 -82.70683 10630 ft 229 kts 282°
2026-05-05 01:35 42.54436 -82.72789 10632 ft 229 kts 282°
2026-05-05 01:35 42.54796 -82.74891 10633 ft 229 kts 282°
2026-05-05 01:36 42.55159 -82.77000 10631 ft 230 kts 282°
2026-05-05 01:36 42.55523 -82.79106 10624 ft 230 kts 282°
2026-05-05 01:36 42.55883 -82.81192 10627 ft 229 kts 282°
2026-05-05 01:36 42.56244 -82.83288 10620 ft 228 kts 282°
2026-05-05 01:37 42.56608 -82.85392 10619 ft 228 kts 282°
2026-05-05 01:37 42.56970 -82.87494 10623 ft 229 kts 282°
2026-05-05 01:37 42.57321 -82.89545 10618 ft 228 kts 280°
2026-05-05 01:37 42.57360 -82.91716 10321 ft 224 kts 265°
2026-05-05 01:38 42.57153 -82.93809 10033 ft 221 kts 262°
2026-05-05 01:38 42.56924 -82.95823 9815 ft 217 kts 262°
2026-05-05 01:38 42.56692 -82.97829 9552 ft 215 kts 262°
2026-05-05 01:38 42.56459 -82.99837 9263 ft 214 kts 262°
2026-05-05 01:39 42.56231 -83.01819 8954 ft 211 kts 262°
2026-05-05 01:39 42.56004 -83.03773 8470 ft 209 kts 262°
2026-05-05 01:39 42.55778 -83.05704 7884 ft 205 kts 262°
2026-05-05 01:39 42.55552 -83.07614 7296 ft 205 kts 262°
2026-05-05 01:40 42.55330 -83.09504 6814 ft 202 kts 262°
2026-05-05 01:40 42.55110 -83.11362 6317 ft 197 kts 262°
2026-05-05 01:40 42.54895 -83.13155 6209 ft 197 kts 262°
2026-05-05 01:40 42.54694 -83.14864 6211 ft 200 kts 262°
2026-05-05 01:41 42.54475 -83.16730 6227 ft 199 kts 262°
2026-05-05 01:41 42.54271 -83.18567 6232 ft 196 kts 262°
2026-05-05 01:41 42.54072 -83.20390 6223 ft 195 kts 262°
2026-05-05 01:41 42.53871 -83.22206 6219 ft 195 kts 262°
2026-05-05 01:42 42.53405 -83.23919 6221 ft 199 kts 235°
2026-05-05 01:42 42.52222 -83.24966 6227 ft 216 kts 199°
2026-05-05 01:42 42.50666 -83.25000 6203 ft 228 kts 186°
2026-05-05 01:42 42.49096 -83.24943 6019 ft 226 kts 187°
2026-05-05 01:43 42.47524 -83.24894 5769 ft 225 kts 187°
2026-05-05 01:43 42.45968 -83.24845 5508 ft 223 kts 188°
2026-05-05 01:43 42.44418 -83.24797 5248 ft 221 kts 187°
2026-05-05 01:43 42.42888 -83.24750 5001 ft 220 kts 188°
2026-05-05 01:44 42.41362 -83.24702 4734 ft 218 kts 188°
2026-05-05 01:44 42.39862 -83.24671 4476 ft 214 kts 192°
2026-05-05 01:44 42.38456 -83.25097 4245 ft 202 kts 208°
2026-05-05 01:44 42.37273 -83.25833 4003 ft 179 kts 214°
2026-05-05 01:45 42.36183 -83.26617 3755 ft 173 kts 215°
2026-05-05 01:45 42.35136 -83.27387 3521 ft 170 kts 215°
2026-05-05 01:45 42.34103 -83.28150 3293 ft 169 kts 214°
2026-05-05 01:45 42.33080 -83.28907 3072 ft 167 kts 213°
2026-05-05 01:46 42.32074 -83.29651 2851 ft 165 kts 212°
2026-05-05 01:46 42.31058 -83.30402 2614 ft 163 kts 212°
2026-05-05 01:46 42.30069 -83.31133 2405 ft 162 kts 212°
2026-05-05 01:46 42.29091 -83.31855 2184 ft 162 kts 211°
2026-05-05 01:47 42.28098 -83.32589 1958 ft 163 kts 211°
2026-05-05 01:47 42.27088 -83.33335 1740 ft 169 kts 211°
2026-05-05 01:47 42.26043 -83.34106 1483 ft 171 kts 211°
2026-05-05 01:47 42.25004 -83.34872 1236 ft 171 kts 210°
2026-05-05 01:48 42.23942 -83.35655 994 ft 174 kts 208°
2026-05-05 01:48 42.22907 -83.36418 761 ft 160 kts 208°
2026-05-05 01:48 42.22028 -83.37064 648 ft 121 kts 208°
2026-05-05 01:48 42.21515 -83.37444 649 ft 67 kts 208°
2026-05-05 01:49 42.21199 -83.37675 651 ft 35 kts 207°
2026-05-05 01:49 42.21062 -83.37742 650 ft 20 kts 192°
2026-05-05 01:49 42.20972 -83.37740 650 ft 0 kts 169°
2026-05-05 01:49 42.20963 -83.37738 650 ft 2 kts 169°
2026-05-05 01:50 42.20938 -83.37731 650 ft 5 kts 169°
2026-05-05 01:50 42.20905 -83.37702 651 ft 7 kts 115°
2026-05-05 01:50 42.20918 -83.37632 652 ft 9 kts 49°
2026-05-05 01:50 42.20979 -83.37591 650 ft 11 kts 24°
2026-05-05 01:51 42.21039 -83.37520 650 ft 12 kts 79°
2026-05-05 01:51 42.21024 -83.37399 651 ft 14 kts 117°
2026-05-05 01:51 42.20976 -83.37274 650 ft 16 kts 117°
2026-05-05 01:51 42.20920 -83.37132 650 ft 18 kts 118°
2026-05-05 01:52 42.20857 -83.36977 651 ft 20 kts 123°
2026-05-05 01:52 42.20787 -83.36810 649 ft 21 kts 118°
2026-05-05 01:52 42.20709 -83.36638 650 ft 20 kts 143°
2026-05-05 01:52 42.20612 -83.36669 650 ft 12 kts 206°
2026-05-05 01:53 42.20536 -83.36713 650 ft 12 kts 178°
2026-05-05 01:53 42.20450 -83.36694 650 ft 13 kts 192°
2026-05-05 01:53 42.20363 -83.36750 651 ft 15 kts 208°
2026-05-05 01:53 42.20270 -83.36760 650 ft 14 kts 143°
2026-05-05 01:54 42.20230 -83.36633 650 ft 16 kts 102°
2026-05-05 01:54 42.20206 -83.36478 650 ft 18 kts 97°
2026-05-05 01:54 42.20183 -83.36304 650 ft 20 kts 103°
2026-05-05 01:54 42.20200 -83.36134 651 ft 19 kts 40°
2026-05-05 01:55 42.20320 -83.36038 650 ft 21 kts 30°
2026-05-05 01:55 42.20455 -83.35940 650 ft 23 kts 28°
2026-05-05 01:55 42.20592 -83.35834 650 ft 16 kts 22°
2026-05-05 01:55 42.20660 -83.35823 650 ft 5 kts 346°
2026-05-05 01:56 42.20681 -83.35841 650 ft 0 kts 309°
2026-05-05 01:56 42.20683 -83.35843 650 ft 0 kts 312°
2026-05-05 01:58 42.20684 -83.35838 650 ft 0 kts 295°